TimeEDT,TemperatureF,Dew PointF,Humidity,Sea Level PressureIn,VisibilityMPH,Wind Direction,Wind SpeedMPH,Gust SpeedMPH,PrecipitationIn,Events,Conditions,WindDirDegrees,DateUTC
12:22 AM,48.2,48.2,100,29.95,10.0,North,5.8,-,N/A,,Overcast,350,2013-06-09 04:22:00
12:41 AM,48.2,46.4,93,29.95,10.0,North,8.1,-,N/A,,Overcast,360,2013-06-09 04:41:00
12:53 AM,48.9,46.9,93,29.97,10.0,North,6.9,-,N/A,,Overcast,350,2013-06-09 04:53:00
1:53 AM,48.9,46.9,93,29.99,10.0,North,4.6,-,N/A,,Overcast,360,2013-06-09 05:53:00
2:53 AM,48.0,46.9,96,30.01,10.0,North,3.5,-,N/A,,Overcast,10,2013-06-09 06:53:00
3:02 AM,48.2,46.4,93,30.00,10.0,Calm,Calm,-,N/A,,Overcast,0,2013-06-09 07:02:00
3:53 AM,48.0,46.9,96,30.01,10.0,Calm,Calm,-,N/A,,Overcast,0,2013-06-09 07:53:00
4:53 AM,48.0,46.9,96,30.04,8.0,Calm,Calm,-,N/A,,Overcast,0,2013-06-09 08:53:00
5:10 AM,48.2,46.4,93,30.02,9.0,Calm,Calm,-,N/A,,Overcast,0,2013-06-09 09:10:00
5:37 AM,48.2,46.4,93,30.02,10.0,North,3.5,-,N/A,,Overcast,360,2013-06-09 09:37:00
5:53 AM,48.9,46.9,93,30.04,10.0,NNW,3.5,-,N/A,,Overcast,330,2013-06-09 09:53:00
6:11 AM,48.2,46.4,93,30.01,10.0,NNE,5.8,-,N/A,,Overcast,30,2013-06-09 10:11:00
6:45 AM,48.2,46.4,93,30.02,10.0,North,4.6,-,N/A,,Overcast,10,2013-06-09 10:45:00
6:53 AM,48.9,46.9,93,30.03,10.0,North,4.6,-,N/A,,Overcast,360,2013-06-09 10:53:00
7:07 AM,48.2,46.4,93,30.03,10.0,North,4.6,-,N/A,,Overcast,10,2013-06-09 11:07:00
7:39 AM,50.0,46.4,87,30.05,10.0,Calm,Calm,-,N/A,,Overcast,0,2013-06-09 11:39:00
7:53 AM,50.0,46.0,86,30.06,10.0,Calm,Calm,-,N/A,,Overcast,0,2013-06-09 11:53:00
8:25 AM,50.0,46.4,87,30.05,8.0,SSW,3.5,-,N/A,,Overcast,200,2013-06-09 12:25:00
8:53 AM,50.0,46.0,86,30.07,3.0,Calm,Calm,-,N/A,,Overcast,0,2013-06-09 12:53:00
9:04 AM,50.0,46.4,87,30.06,4.0,Calm,Calm,-,N/A,,Overcast,0,2013-06-09 13:04:00
9:43 AM,51.8,48.2,88,30.05,10.0,Calm,Calm,-,N/A,,Overcast,0,2013-06-09 13:43:00
9:53 AM,53.1,46.9,80,30.06,10.0,Calm,Calm,-,N/A,,Overcast,0,2013-06-09 13:53:00
10:53 AM,53.1,46.9,80,30.07,10.0,SE,4.6,-,N/A,,Overcast,140,2013-06-09 14:53:00
11:53 AM,53.1,48.0,83,30.07,10.0,SW,6.9,-,N/A,,Overcast,220,2013-06-09 15:53:00
12:53 PM,55.0,48.9,80,30.06,8.0,Calm,Calm,-,0.00,Rain,Light Rain,0,2013-06-09 16:53:00
1:48 PM,55.4,51.8,88,30.04,10.0,Variable,3.5,-,0.00,,Overcast,0,2013-06-09 17:48:00
1:53 PM,55.9,50.0,80,30.05,10.0,Calm,Calm,-,0.00,,Overcast,0,2013-06-09 17:53:00
2:05 PM,55.4,50.0,82,30.04,10.0,SW,6.9,-,N/A,,Overcast,230,2013-06-09 18:05:00
2:53 PM,57.9,51.1,78,30.04,10.0,WNW,3.5,-,N/A,,Overcast,290,2013-06-09 18:53:00
3:53 PM,57.0,51.1,81,30.05,10.0,Calm,Calm,-,N/A,,Overcast,0,2013-06-09 19:53:00
4:53 PM,57.9,52.0,81,30.05,10.0,Calm,Calm,-,N/A,,Overcast,0,2013-06-09 20:53:00
5:53 PM,57.9,52.0,81,30.05,10.0,Calm,Calm,-,N/A,,Overcast,0,2013-06-09 21:53:00
6:53 PM,57.0,52.0,83,30.06,10.0,Calm,Calm,-,N/A,,Overcast,0,2013-06-09 22:53:00
7:49 PM,57.2,51.8,82,30.06,10.0,North,3.5,-,N/A,,Overcast,10,2013-06-09 23:49:00
7:53 PM,55.9,52.0,87,30.08,10.0,NNE,3.5,-,N/A,,Overcast,30,2013-06-09 23:53:00
8:11 PM,55.4,53.6,94,30.07,10.0,North,3.5,-,N/A,,Overcast,360,2013-06-10 00:11:00
8:53 PM,55.0,53.1,93,30.10,10.0,Calm,Calm,-,N/A,,Overcast,0,2013-06-10 00:53:00
9:08 PM,55.4,53.6,94,30.09,10.0,Calm,Calm,-,N/A,,Overcast,0,2013-06-10 01:08:00
9:53 PM,54.0,53.1,97,30.11,10.0,Calm,Calm,-,N/A,,Overcast,0,2013-06-10 01:53:00
10:53 PM,54.0,52.0,93,30.12,10.0,NNW,3.5,-,N/A,,Overcast,340,2013-06-10 02:53:00
11:53 PM,52.0,48.9,89,30.12,10.0,Calm,Calm,-,N/A,,Clear,0,2013-06-10 03:53:00